Tracking 30995 objects as of 5-Jul-2025
HD Live streaming from Space Station
objects crossing your sky now

BLOCK DM-SL R/B

Track BLOCK DM-SL R/B now!


NORAD ID: 38357
Int'l Code: 2012-030B
Perigee: 738.0 km
Apogee: 35,672.5 km
Inclination: 0.5 °
Period: 639.0 minutes
Semi major axis: 24576 km
RCS: 20.6934 m2 (large)
Launch date: June 1, 2012
Source: Sea Launch (SEAL)
Launch site: SEA LAUNCH (SEAL)

Note: This is a ROCKET BODY
Your satellite tracking list
Your tracking list is empty




NASA's NSSDC Master Catalog

Two Line Element Set (TLE):
1 38357U 12030B   25185.75770347 -.00000171  00000-0 -62498-4 0  9997
2 38357   0.4661 311.3117 7107368 316.2063  16.9168  2.25335504107957
Source of the keplerian elements: AFSPC